www.pogodaiklimat.ru

Погода и климат >> Архив погоды >> Канада >> Wainwright Cfb Airf


ПОГОДА в Wainwright Cfb Airf

  • Прогноз погоды в Wainwright Cfb Airf
  • Монитор погоды в Wainwright Cfb Airf
  • Климат города

АРХИВ ПОГОДЫ в Wainwright Cfb Airf

Время (UTC), дата Ветер
(напр.,м/с)
 
Видим.   Явления Облачность Т
(С)
Тd
(С)
f
(%)
Тe
(С)
Тes
(С)
Комфортность P
(гПа)
Po
(гПа)
Тmin
(С)
Tmax
(С)
R
(мм)
R24
(мм)
S
(см)
00 16.10 СЗ 4 н/о н/о +9.8 +1.4 56 +7 +7 937.3
03 16.10 СЗ 4 н/о н/о +8.0 +1.4 63 +5 +5 938.2
06 16.10 С 4 н/о н/о +7.2 +1.9 69 +4 +4 940.2 18
09 16.10 З 3 н/о н/о +3.8 +0.9 81 0 0 941.7
12 16.10 СЗ 2 н/о н/о +4.7 +1.8 81 +2 +2 1024.8 942.2 +3.3
15 16.10 ЮЗ 2 н/о н/о +3.6 +0.6 81 +1 +1 1025.3 942.4
18 16.10 ЮЗ 2 н/о н/о +8.6 +1.0 59 +7 +7 1024.6 942.1 +8.6
21 16.10 СЗ 4 н/о н/о +15.2 -1.8 31 +15 +15 1023.2 941.0
00 17.10 С 1 н/о н/о +13.4 -2.3 34 +14 +14 1023.5 941.2 +2.8 +15.9
03 17.10 ЮЗ 3 н/о н/о +5.3 -1.2 63 +3 +3 1023.7 940.7
06 17.10 ЮЗ 4 н/о н/о +3.1 -1.7 71 -1 -1 1023.1 940.4 +2.8 +15.9
09 17.10 ЮЗ 5 н/о н/о +2.4 -3.0 67 -3 -3 1021.4 939.3
12 17.10 З 4 н/о н/о +4.1 -3.7 57 0 0 1020.7 938.6 +1.9 +15.9
15 17.10 ЮЗ 4 н/о н/о +4.5 -4.0 54 +1 +1 1021.3 938.6
18 17.10 З 4 н/о н/о +17.2 -4.8 22 +17 +17 1020.2 938.4 +1.9 +17.2
21 17.10 ЮЗ 5 н/о н/о +23.3 -9.2 11 +21 +21 комфорт 1017.4 936.2
00 18.10 ЮЗ 3 н/о н/о +18.7 -4.7 20 +19 +19 1015.9 934.6 +1.9 +24.1
03 18.10 ЮЗ 3 н/о н/о +11.1 -5.1 32 +10 +10 1014.6 932.9
06 18.10 ЮЗ 4 н/о н/о +8.8 -2.9 44 +6 +6 1012.5 931.7 +1.9 +24.1 21
09 18.10 ЮЗ 4 н/о н/о +4.8 -3.1 57 +1 +1 1012.2 931.6
12 18.10 З 3 н/о н/о +2.2 -4.2 63 -2 -2 1013.7 932.4 +1.5 +24.1
15 18.10 З 3 н/о н/о +4.4 -4.2 54 +2 +2 1015.5 933.7
18 18.10 З 3 н/о н/о +13.3 -2.0 35 +13 +13 1015.7 934.4 +1.5 +13.3
21 18.10 СЗ 5 н/о н/о +15.2 -0.9 33 +14 +14 1016.5 934.9
00 19.10 СЗ 4 н/о н/о +12.3 -2.8 35 +11 +11 1018.3 936.2 +1.5 +17.3
03 19.10 СЗ 4 н/о н/о +7.9 -2.3 48 +5 +5 1020.7 938.2
06 19.10 СЗ 4 н/о н/о +5.1 -3.5 54 +2 +2 1022.2 940.1 +1.5 +17.3 20
09 19.10 З 4 н/о н/о +2.8 -3.7 62 -2 -2 1024.2 941.9
12 19.10 З 4 н/о н/о +2.0 -4.1 64 -3 -3 1026.2 943.4 +1.7 +17.3
15 19.10 З 4 н/о н/о +6.2 -4.6 46 +4 +4 1028.0 944.6
18 19.10 СЗ 6 н/о н/о +11.3 -3.5 35 +9 +9 1028.0 945.2 -0.7 +11.3
21 19.10 СЗ 5 н/о н/о +13.4 -5.3 27 +12 +12 1028.0 945.2
00 20.10 С 2 н/о н/о +10.1 -5.6 33 +9 +9 1028.0 944.9 -0.7 +13.7
03 20.10 В 3 н/о н/о +4.1 -4.3 54 +1 +1 1027.7 944.0
06 20.10 ЮВ 2 н/о н/о +1.6 -2.5 74 -1 -1 1026.3 943.4 -0.7 +13.7 19
09 20.10 Ю 3 н/о н/о +0.1 -2.5 83 -5 -5 1023.7 941.1
12 20.10 ЮВ 4 н/о н/о +0.8 -2.9 76 -4 -4 1020.7 938.1 +0.1 +13.7
15 20.10 Ю 5 н/о н/о +1.6 -3.7 68 -4 -4 1017.7 934.9
18 20.10 З 4 н/о н/о +10.8 -1.9 41 +9 +9 1016.0 933.9 -0.3 +10.8
21 20.10 СЗ 6 н/о н/о +15.4 -3.2 28 +14 +14 1015.8 934.0
00 21.10 СЗ 4 н/о н/о +12.0 -5.2 30 +11 +11 1016.0 933.9 -0.3 +15.8
03 21.10 З 3 н/о н/о +7.5 -4.8 41 +5 +5 1017.9 935.4
06 21.10 ЮЗ 4 н/о н/о +4.5 -6.5 45 +1 +1 1019.2 937.1 -0.3 +15.8 23
09 21.10 З 5 н/о н/о +4.4 -6.7 44 +1 +1 1019.7 937.9
12 21.10 З 4 н/о н/о +3.5 -6.5 48 -0 -0 1020.2 938.0 +2.5 +15.8
15 21.10 З 4 н/о н/о +2.7 -5.7 54 -2 -2 1021.4 938.7
18 21.10 З 8 н/о н/о +10.6 -5.0 33 +7 +7 1021.5 939.2 +1.4 +10.6
21 21.10 СЗ 7 н/о н/о +12.0 -6.7 26 +10 +10 1021.3 939.1
00 22.10 СЗ 4 н/о н/о +8.9 -7.4 31 +7 +7 1022.3 939.7 +1.4 +12.5
03 22.10 З 2 н/о н/о +3.4 -6.7 48 +1 +1 1023.9 940.7
06 22.10 ЮЗ 2 н/о н/о +0.4 -6.8 58 -2 -2 1024.6 941.7 +0.3 +12.5 19
09 22.10 ЮЗ 3 н/о н/о -3.1 -7.3 73 -8 -8 1025.5 942.4
12 22.10 ЮЗ 1 н/о н/о -4.8 -7.9 79 -5 -5 1025.7 942.2 -4.8 +12.5
15 22.10 ЮЗ 1 н/о н/о -3.7 -6.9 78 -6 -6 1026.7 942.7

 

Местоположение метеостанции Wainwright Cfb Airf (Канада): широта 52.82 долгота -111.10 высота над уровнем моря 686 м.

В архиве по умолчанию представлена погода в Wainwright Cfb Airf за последнюю неделю. Архивные данные за месяц целиком и за предыдущие месяцы, начиная с января 2011 года, Вы можете получить, выбрав интересующий диапазон дат из раскрывающегося списка и нажав кнопку "Ввод!".


*Определитесь, кто Вы:
робот инопланетянин человек

Внимание! Время в таблицах - всемирное. Для получения местного времени необходимо прибавить поправку, которая в Wainwright Cfb Airf равна -7 ч.

Смотрите также архив погоды в соседних городах и на ближайших метеорологических станциях:

Погода в Albert Hall Agcm (Канада) (31 км)
Погода в Hughenden Agcm (Канада) (35 км)
Погода в Bellshill Agcm (Канада) (36 км)
Погода в Gilt Edge North Agcm (Канада) (43 км)
Погода в Edgerton Agcm (Канада) (46 км)
Погода в Killam Agdm (Канада) (47 км)
Погода в Ribstone South Agcm (Канада) (58 км)
Погода в Kessler Agcm (Канада) (60 км)
Погода в Vermilion Agdm (Канада) (60 км)
Погода в Cadogan Agcm (Канада) (68 км)

Пояснения к столбцам:

Ветер - указаны скорость ветра в м/с - средняя за 10 мин, порывы в срок и между сроками (в фигурных скобках) и направление, откуда дует ветер: С - северный, СВ - северо-восточный, В - восточный, ЮВ - юго-восточный, Ю - южный, ЮЗ - юго-западный, З - западный, СЗ - северо-западный.
Видимость - горизонтальная дальность видимости в метрах или километрах. При видимости от 1 до 10 км при отсутствии осадков обычно наблюдается дымка, при ухудшении видимости до 1 км и менее - туман. В сухую погоду видимость может ухудшаться дымом, пылью или мглою.
Явления - указаны атмосферные явления, наблюдавшиеся в срок или в последний час перед сроком; фигурными скобками обозначены явления, наблюдавшиеся между сроками (за 1-3 часа до срока); квадратными скобками обозначены град или гололедные отложения с указанием их диаметра в мм.
Облачность - указаны через наклонную черту общая и нижняя облачность в баллах и высота нижней границы облаков в метрах; квадратными скобками обозначены формы облаков: Ci - перистые, Cs - перисто-слоистые, Cc - перисто-кучевые, Ac - высококучевые, As - высокослоистые, Sc - слоисто-кучевые, Ns - слоисто-дождевые, Cu - кучевые, Cb - кучево-дождевые. Подробнее классификацию облаков см. в Атласе облаков (PDF).
T - Температура воздуха - температура, измеренная на высоте 2 м над землей.
Td - Температура точки росы - температура, при понижении до которой содержащийся в воздухе водяной пар достигнет насыщения.
f - Относительная влажность воздуха - влажноcть воздуха, измеренная на высоте 2 м над землей.
Te - Эффективная температура - температура, которую ощущает одетый по сезону человек в тени. Характеристика душности погоды. При расчете учитывается влияние влажности воздуха и скорости ветра на теплоощущения человека.
Tes - Эффективная температура на солнце - температура, которую ощущает человек, с поправкой на солнечный нагрев. Характеристика знойности погоды. Зависит от высоты солнца над горизонтом, облачности и скорости ветра. Ночью, в пасмурную погоду, а также при ветре 12 м/с и более поправка равна нулю.
P - Атмосферное давление - приведенное к уровню моря атмосферное давление.
Po - Атмосферное давление - измеренное на уровне метеостанции атмосферное давление.
Tmin - Минимальная температура - минимум температуры воздуха на высоте 2 м над землей.
Tmax - Максимальная температура - максимум температуры воздуха на высоте 2 м над землей.
R - Количество осадков - Количество выпавших осадков за период времени, мм. При наведении курсора мыши на число - период времени, за который выпало указанное количество осадков.
R24 - Количество осадков - Количество выпавших осадков за 24 часа, мм.
S - Снежный покров - Высота снежного покрова, см. При наведении курсора мыши на число - состояние снежного покрова и степень покрытия местности в баллах.